Hourly Data Report for October 31, 2014

All times are specified in Local Standard Time (LST). Add 1 hour to adjust for Daylight Saving Time where and when it is observed.

ST LEONARD CS
NEW BRUNSWICK

47°09'28.050" N
67°49'55.014" W
245.00 m
810I001
71019
WIY

Download Data

Hourly Data (October 2014)
Hourly Data Report for October 31, 2014
Temp Definition
°C
Dew Point Temp Definition
°C
Rel Hum Definition
%
Wind Dir Definition
10's deg

Wind Spd Definition
km/h
Visibility Definition
km
Stn Press Definition
kPa
Hmdx Definition


Wind Chill Definition


Weather Definition


TIME
00:00 2.5 -2.8 68 32 3   98.41     LegendNANA
01:00 2.4 -2.6 70 31 2   98.43     LegendNANA
02:00 2.1 -1.9 75 30 1   98.48     LegendNANA
03:00 2.0 -1.6 77   0   98.52     LegendNANA
04:00 1.7 -1.1 81 2 LegendMM   98.54     LegendNANA
05:00 0.9 -0.7 89   0   98.57     LegendNANA
06:00 1.3 -0.6 87 1 LegendMM   98.61     LegendNANA
07:00 0.8 -0.5 91 16 LegendMM   98.68     LegendNANA
08:00 0.7 -0.3 93   0   98.74     LegendNANA
09:00 1.7 -0.2 88 17 LegendMM   98.80     LegendNANA
10:00 2.4 0.0 84 21 LegendMM   98.80     LegendNANA
11:00 3.5 -1.7 69   0   98.82     LegendNANA
12:00 4.3 -1.9 64 0 1   98.79     LegendNANA
13:00 5.2 -1.5 62 0 1   98.77     LegendNANA
14:00 5.2 -1.6 61 0 1   98.78     LegendNANA
15:00 4.7 -1.6 64 35 1   98.82     LegendNANA
16:00 4.3 -1.7 65 0 1   98.88     LegendNANA
17:00 3.7 -1.2 70   0   98.91     LegendNANA
18:00 3.1 -1.1 74   0   98.98     LegendNANA
19:00 2.7 -1.4 74 0 1   98.99     LegendNANA
20:00 2.8 -1.6 73 3 1   99.03     LegendNANA
21:00 2.1 -0.9 80 0 1   99.06     LegendNANA
22:00 1.9 -0.8 82 21 LegendMM   99.10     LegendNANA
23:00 1.9 -0.9 82 15 1   99.10     LegendNANA

Notes on Data Quality.

Legend

  • E = Estimated
  • M = Missing
  • NA = Not Available
  • ‡ = Partner data that is not subject to review by the National Climate Archives
Date modified: